Terug naar catalogus

CZ-4 DEB

ActiefSSO
NORAD 20890·DEBRIS·🇨🇳 China

Gelanceerd Sep 3, 1990 vanaf Taiyuan Satellite Launch Center

Loading…

Volgende Passages (komende 24 uur)

TLE

VersSource: Space-Track

Epoch: Sep 14, 2026, 09:39 UTC

1 20890U 90081BA  26257.40267012 -.00000048  00000-0 -25042-5 0  9993
2 20890  98.9476 236.7527 0012742 221.3932 138.6272 14.07232893842949

Volg CZ-4 DEB in realtime met AllMySat

Download on the App Store